DW1345 Weather Reports


time (UTC)temp
F
wind
direction
speed
knots
gust
knots
rain 1hr
in
rain 24hr
in
rain mn
in
humidity
%
barometer
mb
20260905041541 54 82 0.9 0.0 0.00 0.00 0.00 77 997.7
20260905040048 53 85 0.0 0.0 0.00 0.00 0.00 77 997.6
20260905034540 54 68 0.0 0.0 0.00 0.00 0.00 76 997.6
20260905033036 54 69 1.7 0.0 0.00 0.00 0.00 76 997.5
20260905031540 54 92 2.6 0.0 0.00 0.00 0.00 76 997.5
20260905030035 54 97 2.6 0.0 0.00 0.00 0.00 77 997.5
20260905024533 54 92 2.6 0.0 0.00 0.00 0.00 77 997.5
20260905023031 54 85 3.5 0.0 0.00 0.00 0.00 78 997.5
20260905021541 55 119 3.5 0.0 0.00 0.00 0.00 77 997.4
20260905020030 55 93 3.5 0.0 0.00 0.00 0.00 77 997.5
20260905014526 55 90 3.5 0.0 0.00 0.00 0.00 77 997.4
20260905013027 56 92 3.5 0.0 0.00 0.00 0.00 75 997.3
20260905011528 56 79 3.5 0.0 0.00 0.00 0.00 75 997.4
20260905010031 56 86 3.5 0.0 0.00 0.00 0.00 76 997.3
20260905004532 56 95 3.5 0.0 0.00 0.00 0.00 76 997.3
20260905003038 56 86 3.5 0.0 0.00 0.00 0.00 76 997.3
20260905001522 56 81 4.3 0.0 0.00 0.00 0.00 76 997.4
20260905000022 56 113 4.3 0.0 0.00 0.00 0.00 76 997.4
20260904234526 56 117 4.3 0.0 0.00 0.00 0.00 75 997.5
20260904233037 56 101 2.6 0.0 0.00 0.00 0.00 76 997.6
20260904231522 56 105 4.3 0.0 0.00 0.00 0.00 76 997.6
20260904230033 55 92 2.6 0.0 0.00 0.00 0.00 79 997.5
20260904224513 55 83 0.9 0.0 0.00 0.00 0.00 81 997.6
20260904223013 55 83 1.7 0.0 0.00 0.00 0.00 81 997.4
20260904221510 55 84 1.7 0.0 0.00 0.00 0.00 80 997.5
20260904220013 54 90 0.9 0.0 0.00 0.00 0.00 80 997.3
20260904214508 55 94 0.9 0.0 0.00 0.00 0.01 78 997.4
20260904213008 55 94 1.7 0.0 0.00 0.00 0.01 76 997.3
20260904211513 56 74 2.6 0.0 0.00 0.00 0.01 75 997.3
20260904210007 56 98 2.6 0.0 0.00 0.00 0.01 75 997.3
20260904204506 56 116 2.6 0.0 0.00 0.00 0.01 77 997.3
20260904203006 56 91 1.7 0.0 0.00 0.00 0.01 77 997.3
20260904201505 56 109 2.6 0.0 0.00 0.00 0.01 79 997.2
20260904200005 54 87 0.0 0.0 0.00 0.00 0.01 82 997.1
20260904194508 54 87 0.9 0.0 0.00 0.00 0.01 84 997.2
20260904193004 53 105 0.0 0.0 0.00 0.00 0.01 84 997.0
20260904191504 53 109 0.0 0.0 0.00 0.00 0.01 84 997.1
20260904190003 54 109 0.0 0.0 0.00 0.00 0.01 84 997.0
20260904184503 54 109 0.0 0.0 0.00 0.00 0.01 84 997.1
20260904183003 55 109 0.0 0.0 0.00 0.00 0.01 82 997.1
20260904181510 57 109 0.0 0.0 0.00 0.00 0.01 80 996.9
20260904180006 58 109 0.0 0.0 0.00 0.00 0.01 79 996.8
20260904174507 59 109 0.0 0.0 0.00 0.00 0.01 78 997.0
20260904173002 60 109 0.0 0.0 0.00 0.00 0.01 77 997.0
20260904171608 61 109 0.0 0.0 0.00 0.00 0.01 77 996.9
20260904170107 61 109 0.0 0.0 0.00 0.00 0.01 75 997.0
20260904164601 61 109 0.0 0.0 0.00 0.00 0.01 74 996.9
20260904163059 62 109 0.0 0.0 0.00 0.00 0.01 73 997.0
20260904161604 62 109 0.0 0.0 0.00 0.00 0.01 71 996.9
20260904160058 62 109 0.0 0.0 0.00 0.00 0.01 69 996.9
20260904154557 63 109 0.9 0.0 0.00 0.00 0.01 67 997.1
20260904153105 64 106 0.0 0.0 0.00 0.00 0.01 71 997.0
20260904151556 63 106 0.0 0.0 0.00 0.00 0.01 71 997.0
20260904150057 63 106 0.0 0.0 0.00 0.00 0.01 66 997.0
20260904144601 63 103 2.6 0.0 0.00 0.00 0.01 63 997.1
20260904143054 63 109 2.6 0.0 0.00 0.00 0.01 64 997.1
20260904141553 63 132 4.3 0.0 0.00 0.00 0.01 63 997.1
20260904140052 64 109 4.3 0.0 0.00 0.00 0.01 62 997.3
20260904134551 64 99 4.3 0.0 0.00 0.00 0.01 62 997.3
20260904133050 65 136 5.2 0.0 0.00 0.00 0.01 59 997.4
20260904131551 65 123 5.2 0.0 0.00 0.00 0.01 61 997.4
20260904130048 66 101 5.2 0.0 0.00 0.00 0.01 61 997.3
20260904124557 66 76 4.3 0.0 0.00 0.00 0.01 59 997.3
20260904123045 67 90 4.3 0.0 0.00 0.00 0.01 57 997.4
20260904121542 66 132 5.2 0.0 0.00 0.00 0.01 58 997.5
20260904120046 66 123 4.3 0.0 0.00 0.00 0.01 57 997.5
20260904114541 65 91 3.5 0.0 0.00 0.00 0.01 61 997.5
20260904113040 65 95 5.2 0.0 0.00 0.00 0.01 62 997.7
20260904111531 64 77 4.3 0.0 0.00 0.00 0.01 64 997.8
20260904110029 64 103 3.5 0.0 0.00 0.00 0.01 66 997.8
20260904104527 64 132 4.3 0.0 0.00 0.00 0.01 66 998.2
20260904103032 63 74 2.6 0.0 0.00 0.00 0.01 70 998.0
20260904101522 63 73 1.7 0.0 0.00 0.00 0.01 70 998.0
20260904100018 62 113 2.6 0.0 0.00 0.00 0.01 74 998.2
20260904094514 61 138 2.6 0.0 0.00 0.00 0.01 78 998.4
20260904093011 60 101 2.6 0.0 0.00 0.00 0.01 78 998.3
20260904091507 59 50 3.5 0.0 0.00 0.00 0.01 80 998.5
20260904090008 58 86 4.3 0.0 0.00 0.00 0.01 80 998.5
20260904084501 58 79 3.5 0.0 0.00 0.00 0.01 83 998.6
20260904083100 57 66 3.5 0.0 0.00 0.00 0.01 83 998.6
20260904081633 57 74 2.6 0.0 0.00 0.00 0.01 85 998.7
20260904080055 57 65 2.6 0.0 0.00 0.00 0.01 85 998.6
20260904074607 56 122 2.6 0.0 0.00 0.00 0.01 88 998.6
20260904073102 56 126 3.5 0.0 0.00 0.00 0.01 90 998.7
20260904071547 55 127 2.6 0.0 0.00 0.00 0.01 92 998.9
20260904070056 54 69 0.9 0.0 0.00 0.00 0.01 94 999.0
20260904064541 53 17 0.0 0.0 0.00 0.00 0.01 96 999.0
20260904063040 52 26 0.9 0.0 0.00 0.00 0.01 96 999.0
20260904061536 52 49 1.7 0.0 0.00 0.00 0.01 96 999.2
20260904060034 51 55 1.7 0.0 0.00 0.00 0.01 97 999.2
20260904054531 50 33 1.7 0.0 0.00 0.00 0.01 96 999.4
20260904053036 49 37 1.7 0.0 0.00 0.00 0.01 96 999.4
20260904051535 49 42 1.7 0.0 0.00 0.00 0.01 97 999.6
20260904050034 48 39 0.9 0.0 0.00 0.00 0.01 96 999.5
20260904044526 47 40 0.0 0.0 0.00 0.00 0.01 95 999.6
20260904043025 48 53 0.9 0.0 0.00 0.00 0.01 96 999.7